Fort Smith, AR

2:28 PM CDT on August 27, 2016 (GMT -0500)
Fort Smith Regional

Weather History for KFSM - December, 2012

Change the Weather History Date:

Saturday, December 1, 2012

  Actual Average Record
Temperature  
Mean Temperature 65 °F 45 °F  
Max Temperature 76 °F 56 °F 78 °F (1883)
Min Temperature 54 °F 35 °F 18 °F (1975)
Degree Days  
Heating Degree Days 0 20  
Month to date heating degree days 0 20  
Since 1 July heating degree days 512 585  
Cooling Degree Days 1    
Growing Degree Days 16 (Base 50)    
Moisture  
Dew Point 56 °F    
Average Humidity 74    
Maximum Humidity 93    
Minimum Humidity 54    
Precipitation  
Precipitation 0.00 in 0.13 in 1.53 in (1921)
Month to date precipitation 0.00 0.13  
Year to date precipitation 31.19 42.30  
Sea Level Pressure  
Sea Level Pressure 30.00 in    
Wind  
Wind Speed 7 mph (ESE)    
Max Wind Speed 26 mph    
Max Gust Speed 36 mph    
Visibility 10 miles    
Events      
T = Trace of Precipitation, MM = Missing Value Source: NWS Daily Summary

Daily Weather History Graph

Daily Weather History Graph

Search for Another Location

Airport or City:

Trip Planner

Search our weather history database for the weather conditions in past years. The results will help you decide how hot, cold, wet, or windy it might be!

Date:

Astronomy

Dec. 01, 2012 Rise Set
Actual Time 7:08 AM CST 5:04 PM CST
Civil Twilight 6:40 AM CST 5:32 PM CST
Nautical Twilight 6:09 AM CST 6:04 PM CST
Astronomical Twilight 5:38 AM CST 6:34 PM CST
Moon 7:53 PM CST (12/1) 9:23 AM CST (12/1)
Length of Visible Light 10h 52m
Length of Day
9h 56m
Waning Gibbous, 91% of the Moon is Illuminated
Dec 1
Waning Gibbous
Dec 6
Last Quarter
Dec 13
New
Dec 19
First Quarter
Dec 28
Full

Hourly Weather History & Observations

Time (CST) Temp. Dew Point Humidity Pressure Visibility Wind Dir Wind Speed Gust Speed Precip Events Conditions
12:53 AM 55.9 °F 52.0 °F 87% 30.08 in 8.0 mi NNE 5.8 mph - N/A   Overcast
1:53 AM 54.0 °F 51.1 °F 90% 30.07 in 7.0 mi NE 3.5 mph - N/A   Clear
2:53 AM 55.9 °F 52.0 °F 87% 30.07 in 8.0 mi ENE 4.6 mph - N/A   Overcast
3:15 AM 55.4 °F 51.8 °F 88% 30.07 in 8.0 mi East 4.6 mph - N/A   Overcast
3:32 AM 55.4 °F 51.8 °F 88% 30.07 in 9.0 mi NNE 8.1 mph - N/A   Scattered Clouds
3:53 AM 55.4 °F 51.8 °F 88% 30.06 in 9.0 mi NE 5.8 mph - N/A   Scattered Clouds
4:07 AM 55.4 °F 51.8 °F 88% 30.06 in 9.0 mi NE 5.8 mph - N/A   Mostly Cloudy
4:53 AM 55.9 °F 53.1 °F 90% 30.04 in 9.0 mi East 4.6 mph - N/A   Overcast
5:53 AM 57.0 °F 53.1 °F 87% 30.05 in 9.0 mi Calm Calm - N/A   Overcast
6:53 AM 57.0 °F 53.1 °F 87% 30.06 in 9.0 mi NE 4.6 mph - N/A   Overcast
7:53 AM 60.1 °F 55.0 °F 83% 30.05 in 10.0 mi SE 5.8 mph - N/A   Overcast
8:53 AM 64.9 °F 57.0 °F 75% 30.04 in 10.0 mi ESE 6.9 mph - N/A   Overcast
9:53 AM 68.0 °F 57.9 °F 70% 30.04 in 10.0 mi Variable 3.5 mph - N/A   Overcast
10:53 AM 73.0 °F 57.9 °F 59% 30.02 in 10.0 mi SSW 16.1 mph 25.3 mph N/A   Mostly Cloudy
11:53 AM 73.9 °F 57.9 °F 57% 29.99 in 10.0 mi SSW 19.6 mph 26.5 mph N/A   Mostly Cloudy
12:53 PM 75.0 °F 57.9 °F 55% 29.95 in 10.0 mi SSW 18.4 mph 29.9 mph N/A   Overcast
1:53 PM 75.2 °F 57.2 °F 53% 29.94 in 10.0 mi SSW 12.7 mph 27.6 mph N/A   Mostly Cloudy
2:53 PM 75.2 °F 57.2 °F 53% 29.93 in 10.0 mi South 15.0 mph 23.0 mph N/A   Mostly Cloudy
3:53 PM 75.0 °F 57.0 °F 53% 29.93 in 10.0 mi South 10.4 mph - N/A   Overcast
4:53 PM 73.9 °F 57.9 °F 57% 29.93 in 10.0 mi SSE 5.8 mph - N/A   Overcast
5:53 PM 72.0 °F 57.9 °F 61% 29.93 in 10.0 mi SSE 8.1 mph - N/A   Overcast
6:53 PM 71.1 °F 59.0 °F 66% 29.94 in 10.0 mi South 5.8 mph - N/A   Partly Cloudy
7:53 PM 69.1 °F 59.0 °F 70% 29.96 in 10.0 mi ESE 3.5 mph - N/A   Clear
8:53 PM 63.0 °F 57.0 °F 81% 29.97 in 10.0 mi NE 3.5 mph - N/A   Clear
9:53 PM 62.1 °F 57.0 °F 84% 29.98 in 10.0 mi Calm Calm - N/A   Clear
10:53 PM 61.0 °F 57.0 °F 87% 29.98 in 10.0 mi Calm Calm - N/A   Clear
11:53 PM 60.1 °F 57.0 °F 90% 29.98 in 10.0 mi North 3.5 mph - N/A   Clear